When you browse on this site, cookies collect data to enhance your experience and personalize the content and advertising you see.
Visit our Privacy Policy to learn more. By continuing to use the site, you agree to this use of cookies and data.
  • In Hungary
  • List of Countries
  • For 7 days
  • Water Temperature
  • Weather Map
  • News
  • Weather Widgets
  • user-avatar
    Login

    Hourly Weather Finiks

    Today, 19 November, Tuesday

    Time Temperature Precipitation Wind Pressure Humidity
    00:00 +21°C° 0 mm 0 mps 730 mmHg 18%
    01:00 +21°C° 0 mm 0 mps 730 mmHg 18%
    02:00 +21°C° 0 mm 0 mps 729 mmHg 19%
    03:00 +20°C° 0 mm 0 mps 729 mmHg 19%
    04:00 +20°C° 0 mm 0 mps 729 mmHg 19%
    05:00 +21°C° 0 mm 2 mps 729 mmHg 17%
    06:00 +21°C° 0 mm 2 mps 729 mmHg 18%
    07:00 +22°C° 0 mm 1 mps 729 mmHg 18%
    08:00 +22°C° 0 mm 1 mps 729 mmHg 19%
    09:00 +24°C° 0 mm 1 mps 729 mmHg 18%
    10:00 +25°C° 0 mm 1 mps 729 mmHg 16%
    11:00 +26°C° 0 mm 1 mps 729 mmHg 15%
    12:00 +27°C° 0 mm 2 mps 728 mmHg 15%
    13:00 +27°C° 0 mm 2 mps 727 mmHg 15%
    14:00 +28°C° 0 mm 2 mps 726 mmHg 15%
    15:00 +27°C° 0.7 mm 2 mps 726 mmHg 22%
    16:00 +26°C° 0.7 mm 1 mps 725 mmHg 29%
    17:00 +25°C° 0.7 mm 1 mps 725 mmHg 36%
    18:00 +24°C° 1.8 mm 2 mps 725 mmHg 45%
    19:00 +22°C° 1.8 mm 3 mps 725 mmHg 55%
    20:00 +21°C° 1.8 mm 4 mps 725 mmHg 65%
    21:00 +20°C° 1.7 mm 4 mps 724 mmHg 68%
    22:00 +20°C° 1.7 mm 3 mps 724 mmHg 71%
    23:00 +19°C° 1.7 mm 3 mps 724 mmHg 74%

    Tomorrow, 20 November, Wednesday

    Time Temperature Precipitation Wind Pressure Humidity
    00:00 +19°C° 1.5 mm 3 mps 724 mmHg 74%
    01:00 +19°C° 1.5 mm 4 mps 723 mmHg 73%
    02:00 +19°C° 1.5 mm 4 mps 723 mmHg 72%
    03:00 +19°C° 1.1 mm 5 mps 723 mmHg 70%
    04:00 +19°C° 1.1 mm 5 mps 723 mmHg 68%
    05:00 +19°C° 1.1 mm 6 mps 723 mmHg 66%
    06:00 +17°C° 0.4 mm 6 mps 723 mmHg 67%
    07:00 +17°C° 0.4 mm 6 mps 723 mmHg 68%
    08:00 +17°C° 0.4 mm 6 mps 723 mmHg 70%
    09:00 +18°C° 1 mm 7 mps 723 mmHg 68%
    10:00 +18°C° 1 mm 8 mps 723 mmHg 66%
    11:00 +18°C° 1 mm 10 mps 723 mmHg 65%
    12:00 +19°C° 1.3 mm 10 mps 723 mmHg 62%
    13:00 +19°C° 1.3 mm 11 mps 723 mmHg 59%
    14:00 +21°C° 1.3 mm 12 mps 722 mmHg 57%
    15:00 +19°C° 0.8 mm 10 mps 722 mmHg 57%
    16:00 +18°C° 0.8 mm 9 mps 722 mmHg 58%
    17:00 +16°C° 0.8 mm 8 mps 722 mmHg 59%
    18:00 +16°C° 0.1 mm 6 mps 723 mmHg 59%
    19:00 +15°C° 0.1 mm 4 mps 723 mmHg 58%
    20:00 +16°C° 0.1 mm 2 mps 724 mmHg 58%
    21:00 +16°C° 0.1 mm 2 mps 725 mmHg 59%
    22:00 +16°C° 0.1 mm 2 mps 725 mmHg 59%
    23:00 +16°C° 0.1 mm 2 mps 726 mmHg 60%

    Day after tomorrow, 21 November, Thursday

    Time Temperature Precipitation Wind Pressure Humidity
    00:00 +16°C° 0.2 mm 3 mps 726 mmHg 59%
    01:00 +16°C° 0.2 mm 3 mps 726 mmHg 58%
    02:00 +14°C° 0.2 mm 3 mps 726 mmHg 56%
    03:00 +14°C° 0.2 mm 3 mps 727 mmHg 57%
    04:00 +14°C° 0.2 mm 3 mps 727 mmHg 59%
    05:00 +14°C° 0.2 mm 3 mps 727 mmHg 60%
    06:00 +14°C° 0.1 mm 3 mps 727 mmHg 62%
    07:00 +15°C° 0.1 mm 2 mps 727 mmHg 64%
    08:00 +15°C° 0.1 mm 1 mps 728 mmHg 66%
    09:00 +15°C° 0.1 mm 1 mps 728 mmHg 61%
    10:00 +16°C° 0.1 mm 1 mps 728 mmHg 57%
    11:00 +18°C° 0.1 mm 1 mps 729 mmHg 53%
    12:00 +18°C° 0.3 mm 1 mps 729 mmHg 51%
    13:00 +19°C° 0.3 mm 1 mps 729 mmHg 49%
    14:00 +19°C° 0.3 mm 1 mps 728 mmHg 47%
    15:00 +19°C° 0.2 mm 1 mps 729 mmHg 47%
    16:00 +19°C° 0.2 mm 1 mps 729 mmHg 47%
    17:00 +18°C° 0.2 mm 2 mps 729 mmHg 47%
    18:00 +19°C° 0.1 mm 1 mps 730 mmHg 48%
    19:00 +18°C° 0.1 mm 1 mps 731 mmHg 49%
    20:00 +16°C° 0.1 mm 0 mps 731 mmHg 51%
    21:00 +18°C° 0 mm 1 mps 731 mmHg 52%
    22:00 +18°C° 0 mm 1 mps 732 mmHg 53%
    23:00 +16°C° 0 mm 1 mps 732 mmHg 54%

    22 November, Friday

    Time Temperature Precipitation Wind Pressure Humidity
    00:00 +16°C° 0 mm 1 mps 733 mmHg 55%
    01:00 +16°C° 0 mm 1 mps 733 mmHg 56%
    02:00 +16°C° 0 mm 1 mps 733 mmHg 58%
    03:00 +15°C° 0 mm 1 mps 733 mmHg 59%
    04:00 +15°C° 0 mm 1 mps 733 mmHg 60%
    05:00 +15°C° 0 mm 1 mps 734 mmHg 61%
    06:00 +15°C° 0 mm 1 mps 734 mmHg 61%
    07:00 +15°C° 0 mm 1 mps 735 mmHg 61%
    08:00 +15°C° 0 mm 1 mps 735 mmHg 61%
    09:00 +16°C° 0 mm 1 mps 735 mmHg 57%
    10:00 +17°C° 0 mm 2 mps 735 mmHg 53%
    11:00 +18°C° 0 mm 2 mps 735 mmHg 48%
    12:00 +19°C° 0 mm 1 mps 735 mmHg 46%
    13:00 +20°C° 0 mm 1 mps 734 mmHg 43%
    14:00 +20°C° 0 mm 1 mps 733 mmHg 40%
    15:00 +20°C° 0 mm 1 mps 733 mmHg 41%
    16:00 +20°C° 0 mm 1 mps 733 mmHg 41%
    17:00 +20°C° 0 mm 1 mps 733 mmHg 42%
    18:00 +20°C° 0 mm 1 mps 733 mmHg 43%
    19:00 +20°C° 0 mm 1 mps 734 mmHg 44%
    20:00 +19°C° 0 mm 1 mps 734 mmHg 45%
    21:00 +19°C° 0 mm 1 mps 734 mmHg 46%
    22:00 +19°C° 0 mm 1 mps 734 mmHg 47%
    23:00 +18°C° 0 mm 1 mps 734 mmHg 48%

    23 November, Saturday

    Time Temperature Precipitation Wind Pressure Humidity
    00:00 +18°C° 0 mm 1 mps 734 mmHg 48%
    01:00 +17°C° 0 mm 2 mps 734 mmHg 49%
    02:00 +17°C° 0 mm 2 mps 734 mmHg 49%
    03:00 +16°C° 0 mm 2 mps 734 mmHg 49%
    04:00 +16°C° 0 mm 2 mps 734 mmHg 49%
    05:00 +16°C° 0 mm 2 mps 734 mmHg 49%
    06:00 +16°C° 0 mm 2 mps 734 mmHg 48%
    07:00 +16°C° 0 mm 2 mps 734 mmHg 47%
    08:00 +16°C° 0 mm 2 mps 734 mmHg 46%
    09:00 +17°C° 0 mm 2 mps 734 mmHg 41%
    10:00 +18°C° 0 mm 2 mps 734 mmHg 35%
    11:00 +20°C° 0 mm 2 mps 734 mmHg 30%
    12:00 +20°C° 0 mm 2 mps 734 mmHg 28%
    13:00 +21°C° 0 mm 2 mps 733 mmHg 26%
    14:00 +23°C° 0 mm 2 mps 732 mmHg 24%
    15:00 +23°C° 0 mm 1 mps 732 mmHg 26%
    16:00 +23°C° 0 mm 1 mps 732 mmHg 28%
    17:00 +23°C° 0 mm 1 mps 732 mmHg 30%
    18:00 +22°C° 0 mm 1 mps 732 mmHg 30%
    19:00 +19°C° 0 mm 0 mps 732 mmHg 31%
    20:00 +19°C° 0 mm 0 mps 732 mmHg 32%
    21:00 +20°C° 0 mm 1 mps 733 mmHg 32%
    22:00 +20°C° 0 mm 1 mps 733 mmHg 33%
    23:00 +20°C° 0 mm 1 mps 733 mmHg 33%

    24 November, Sunday

    Time Temperature Precipitation Wind Pressure Humidity
    00:00 +18°C° 0 mm 2 mps 732 mmHg 35%
    01:00 +18°C° 0 mm 2 mps 732 mmHg 36%
    02:00 +17°C° 0 mm 2 mps 732 mmHg 38%
    03:00 +17°C° 0 mm 2 mps 732 mmHg 38%
    04:00 +16°C° 0 mm 1 mps 732 mmHg 38%
    05:00 +16°C° 0 mm 1 mps 731 mmHg 38%
    06:00 +16°C° 0 mm 1 mps 732 mmHg 38%
    07:00 +16°C° 0 mm 1 mps 732 mmHg 38%
    08:00 +16°C° 0 mm 1 mps 732 mmHg 37%
    09:00 +19°C° 0 mm 1 mps 732 mmHg 34%
    10:00 +20°C° 0 mm 1 mps 732 mmHg 30%
    11:00 +21°C° 0 mm 2 mps 732 mmHg 27%
    12:00 +22°C° 0 mm 1 mps 731 mmHg 26%
    13:00 +23°C° 0 mm 1 mps 731 mmHg 25%
    14:00 +24°C° 0 mm 1 mps 730 mmHg 24%
    15:00 +24°C° 0 mm 1 mps 730 mmHg 26%
    16:00 +23°C° 0 mm 1 mps 729 mmHg 28%
    17:00 +21°C° 0 mm 0 mps 729 mmHg 30%
    18:00 +23°C° 0 mm 1 mps 729 mmHg 31%
    19:00 +22°C° 0 mm 1 mps 729 mmHg 31%
    20:00 +21°C° 0 mm 1 mps 730 mmHg 31%
    21:00 +21°C° 0 mm 1 mps 730 mmHg 32%
    22:00 +21°C° 0 mm 1 mps 729 mmHg 33%
    23:00 +19°C° 0 mm 0 mps 729 mmHg 33%
    Show more